Location: Dappach
(48.9767°N, 9.6998°E)
Time: 04:58:33
(UTC+00:00)

COSMOS 2428 - Pass Details

Date: 13 August 2024
Orbit: 842 x 857 km, 70.9° (Epoch: 16 September)

Event Time Altitude Azimuth Distance (km) Brightness Sun altitude
Exits shadow 03:17:21 - 271° (W) 2,968 5.0 -8.6°
Reaches altitude 10° 03:19:13 10° 284° (WNW) 2,479 4.7 -8.3°
Maximum altitude 03:22:56 17° 325° (NW) 2,011 4.7 -7.8°
Drops below altitude 10° 03:26:39 10° 6° (N) 2,493 5.7 -7.3°
Sets 03:30:02 0° 25° (NNE) 3,435 6.9 -6.8°
